Location: Dumpton Point
(51.3500°N, 1.4433°E)
Time: 01:10:28
(UTC+00:00)

Cosmos 1833 Rocket - Pass Details

Date: 09 April 2020
Orbit: 834 x 838 km, 71.0° (Epoch: 30 May)

Event Time Altitude Azimuth Distance (km) Brightness Sun altitude
Exits shadow 22:21:13 48° 238° (WSW) 1,088 3.1 -27.2°
Maximum altitude 22:22:44 70° 303° (WNW) 895 2.9 -27.4°
Drops below altitude 10° 22:28:23 10° 27° (NNE) 2,461 5.5 -27.7°
Sets 22:30:51 0° 30° (NNE) 3,399 6.3 -27.9°
